| time (UTC) | temp F | wind direction | speed MPH | gust MPH | rain 1hr in | rain 24hr in | rain mn in | humidity % | barometer mb |
| 20260506002528 | 77 | 22 | 2.0 | 9.0 | 0.00 | 0.00 | 0.00 | 63 | 1005.5 |
| 20260506002028 | 78 | 316 | 2.0 | 9.0 | 0.00 | 0.00 | 0.00 | 63 | 1005.5 |
| 20260506001541 | 78 | 327 | 4.0 | 9.0 | 0.00 | 0.00 | 0.00 | 62 | 1005.4 |
| 20260506001028 | 79 | 327 | 4.0 | 9.0 | 0.00 | 0.00 | 0.00 | 61 | 1005.6 |
| 20260506000527 | 80 | 14 | 2.0 | 9.0 | 0.00 | 0.00 | 0.00 | 61 | 1005.4 |
| 20260506000037 | 80 | 346 | 2.0 | 10.0 | 0.00 | 0.00 | 0.00 | 61 | 1005.2 |
| 20260505235530 | 80 | 333 | 3.0 | 12.0 | 0.00 | 0.00 | 0.00 | 60 | 1004.7 |
| 20260505235030 | 81 | 319 | 3.0 | 12.0 | 0.00 | 0.00 | 0.00 | 59 | 1004.7 |
| 20260505234547 | 82 | 302 | 5.0 | 12.0 | 0.00 | 0.00 | 0.00 | 58 | 1004.6 |
| 20260505234030 | 83 | 343 | 2.0 | 13.0 | 0.00 | 0.00 | 0.00 | 57 | 1004.6 |
| 20260505233531 | 83 | 231 | 3.0 | 13.0 | 0.00 | 0.00 | 0.00 | 56 | 1004.8 |
| 20260505233041 | 84 | 24 | 5.0 | 13.0 | 0.00 | 0.00 | 0.00 | 55 | 1004.7 |
| 20260505232527 | 85 | 279 | 3.0 | 9.0 | 0.00 | 0.00 | 0.00 | 53 | 1004.6 |
| 20260505232031 | 86 | 360 | 3.0 | 12.0 | 0.00 | 0.00 | 0.00 | 51 | 1004.4 |
| 20260505231542 | 86 | 327 | 4.0 | 13.0 | 0.00 | 0.00 | 0.00 | 50 | 1004.2 |
| 20260505231032 | 87 | 25 | 3.0 | 13.0 | 0.00 | 0.00 | 0.00 | 48 | 1004.2 |
| 20260505230528 | 87 | 327 | 5.0 | 13.0 | 0.00 | 0.00 | 0.00 | 47 | 1004.0 |
| 20260505230052 | 88 | 321 | 3.0 | 15.0 | 0.00 | 0.00 | 0.00 | 47 | 1004.0 |
| 20260505225528 | 89 | 332 | 5.0 | 15.0 | 0.00 | 0.00 | 0.00 | 47 | 1003.9 |
| 20260505225028 | 89 | 230 | 3.0 | 7.0 | 0.00 | 0.00 | 0.00 | 50 | 1003.5 |
| 20260505224539 | 89 | 159 | 1.0 | 8.0 | 0.00 | 0.00 | 0.00 | 51 | 1003.6 |
| 20260505224031 | 89 | 207 | 3.0 | 8.0 | 0.00 | 0.00 | 0.00 | 50 | 1003.7 |
| 20260505223530 | 89 | 213 | 2.0 | 8.0 | 0.00 | 0.00 | 0.00 | 51 | 1003.8 |
| 20260505223047 | 89 | 200 | 2.0 | 8.0 | 0.00 | 0.00 | 0.00 | 51 | 1003.5 |
| 20260505222531 | 90 | 273 | 1.0 | 8.0 | 0.00 | 0.00 | 0.00 | 51 | 1003.4 |
| 20260505222028 | 89 | 224 | 3.0 | 8.0 | 0.00 | 0.00 | 0.00 | 51 | 1003.3 |
| 20260505221538 | 89 | 167 | 2.0 | 9.0 | 0.00 | 0.00 | 0.00 | 52 | 1003.3 |
| 20260505221027 | 90 | 138 | 3.0 | 9.0 | 0.00 | 0.00 | 0.00 | 51 | 1003.4 |
| 20260505220530 | 90 | 180 | 2.0 | 9.0 | 0.00 | 0.00 | 0.00 | 52 | 1003.4 |
| 20260505220043 | 90 | 245 | 2.0 | 10.0 | 0.00 | 0.00 | 0.00 | 52 | 1003.4 |
| 20260505215528 | 90 | 181 | 3.0 | 10.0 | 0.00 | 0.00 | 0.00 | 52 | 1003.6 |
| 20260505215031 | 89 | 189 | 3.0 | 8.0 | 0.00 | 0.00 | 0.00 | 52 | 1003.6 |
| 20260505214537 | 89 | 138 | 3.0 | 11.0 | 0.00 | 0.00 | 0.00 | 53 | 1003.6 |
| 20260505214030 | 89 | 265 | 2.0 | 11.0 | 0.00 | 0.00 | 0.00 | 53 | 1003.6 |
| 20260505213530 | 89 | 213 | 4.0 | 11.0 | 0.00 | 0.00 | 0.00 | 53 | 1003.7 |
| 20260505213050 | 89 | 207 | 3.0 | 11.0 | 0.00 | 0.00 | 0.00 | 53 | 1003.8 |
| 20260505212533 | 89 | 0 | 3.0 | 15.0 | 0.00 | 0.00 | 0.00 | 54 | 1003.8 |
| 20260505212028 | 89 | 252 | 4.0 | 15.0 | 0.00 | 0.00 | 0.00 | 55 | 1003.8 |
| 20260505211542 | 89 | 240 | 5.0 | 15.0 | 0.00 | 0.00 | 0.00 | 54 | 1003.8 |
| 20260505211028 | 89 | 34 | 7.0 | 15.0 | 0.00 | 0.00 | 0.00 | 55 | 1003.9 |
| 20260505210527 | 89 | 194 | 3.0 | 14.0 | 0.00 | 0.00 | 0.00 | 56 | 1004.0 |
| 20260505210041 | 89 | 171 | 5.0 | 14.0 | 0.00 | 0.00 | 0.00 | 56 | 1003.8 |
| 20260505205528 | 88 | 135 | 4.0 | 13.0 | 0.00 | 0.00 | 0.00 | 58 | 1004.0 |
| 20260505205032 | 88 | 178 | 3.0 | 14.0 | 0.00 | 0.00 | 0.00 | 58 | 1004.1 |
| 20260505204540 | 89 | 219 | 6.0 | 17.0 | 0.00 | 0.00 | 0.00 | 56 | 1004.2 |
| 20260505204033 | 89 | 211 | 5.0 | 17.0 | 0.00 | 0.00 | 0.00 | 57 | 1004.2 |
| 20260505203533 | 89 | 209 | 5.0 | 16.0 | 0.00 | 0.00 | 0.00 | 56 | 1004.3 |
| 20260505203046 | 89 | 235 | 5.0 | 12.0 | 0.00 | 0.00 | 0.00 | 57 | 1004.4 |
| 20260505202529 | 89 | 240 | 4.0 | 12.0 | 0.00 | 0.00 | 0.00 | 58 | 1004.3 |
| 20260505202029 | 88 | 182 | 2.0 | 11.0 | 0.00 | 0.00 | 0.00 | 59 | 1004.4 |
| 20260505201544 | 88 | 208 | 5.0 | 13.0 | 0.00 | 0.00 | 0.00 | 59 | 1004.4 |
| 20260505201029 | 87 | 198 | 4.0 | 13.0 | 0.00 | 0.00 | 0.00 | 59 | 1004.6 |
| 20260505200532 | 87 | 182 | 5.0 | 13.0 | 0.00 | 0.00 | 0.00 | 59 | 1004.5 |
| 20260505200042 | 88 | 173 | 4.0 | 14.0 | 0.00 | 0.00 | 0.00 | 59 | 1004.6 |
| 20260505195531 | 87 | 261 | 3.0 | 16.0 | 0.00 | 0.00 | 0.00 | 59 | 1004.6 |
| 20260505195027 | 87 | 164 | 5.0 | 16.0 | 0.00 | 0.00 | 0.00 | 59 | 1004.6 |
| 20260505194538 | 87 | 230 | 3.0 | 12.0 | 0.00 | 0.00 | 0.00 | 61 | 1004.6 |
| 20260505194031 | 86 | 187 | 4.0 | 13.0 | 0.00 | 0.00 | 0.00 | 60 | 1004.6 |
| 20260505193527 | 86 | 188 | 4.0 | 14.0 | 0.00 | 0.00 | 0.00 | 60 | 1004.9 |
| 20260505193039 | 86 | 224 | 6.0 | 15.0 | 0.00 | 0.00 | 0.00 | 61 | 1004.7 |
| 20260505192529 | 85 | 177 | 5.0 | 15.0 | 0.00 | 0.00 | 0.00 | 62 | 1004.7 |
| 20260505192030 | 85 | 195 | 6.0 | 15.0 | 0.00 | 0.00 | 0.00 | 62 | 1004.6 |
| 20260505191537 | 85 | 202 | 4.0 | 14.0 | 0.00 | 0.00 | 0.00 | 63 | 1004.6 |
| 20260505191033 | 84 | 178 | 4.0 | 15.0 | 0.00 | 0.00 | 0.00 | 63 | 1004.7 |
| 20260505190532 | 84 | 178 | 5.0 | 17.0 | 0.00 | 0.00 | 0.00 | 64 | 1004.7 |
| 20260505190035 | 84 | 173 | 6.0 | 17.0 | 0.00 | 0.00 | 0.00 | 64 | 1004.7 |
| 20260505185533 | 83 | 199 | 5.0 | 15.0 | 0.00 | 0.00 | 0.00 | 66 | 1004.8 |
| 20260505185031 | 83 | 281 | 5.0 | 16.0 | 0.00 | 0.00 | 0.00 | 65 | 1004.8 |
| 20260505184541 | 83 | 188 | 5.0 | 16.0 | 0.00 | 0.00 | 0.00 | 65 | 1004.9 |
| 20260505184027 | 83 | 214 | 7.0 | 15.0 | 0.00 | 0.00 | 0.00 | 65 | 1005.0 |
| 20260505183527 | 83 | 168 | 5.0 | 15.0 | 0.00 | 0.00 | 0.00 | 65 | 1005.0 |
| 20260505183044 | 83 | 121 | 5.0 | 12.0 | 0.00 | 0.00 | 0.00 | 65 | 1004.9 |
| 20260505182531 | 83 | 261 | 6.0 | 17.0 | 0.00 | 0.00 | 0.00 | 66 | 1004.8 |
| 20260505182033 | 83 | 146 | 3.0 | 17.0 | 0.00 | 0.00 | 0.00 | 66 | 1005.0 |
| 20260505181540 | 83 | 221 | 6.0 | 15.0 | 0.00 | 0.00 | 0.00 | 66 | 1004.9 |
| 20260505181030 | 83 | 242 | 4.0 | 15.0 | 0.00 | 0.00 | 0.00 | 67 | 1005.0 |
| 20260505180531 | 83 | 151 | 6.0 | 14.0 | 0.00 | 0.00 | 0.00 | 66 | 1005.0 |
| 20260505180038 | 83 | 185 | 5.0 | 13.0 | 0.00 | 0.00 | 0.00 | 66 | 1005.0 |
| 20260505175531 | 82 | 204 | 7.0 | 14.0 | 0.00 | 0.00 | 0.00 | 66 | 1004.8 |
| 20260505175031 | 82 | 142 | 4.0 | 14.0 | 0.00 | 0.00 | 0.00 | 67 | 1004.9 |
| 20260505174548 | 82 | 208 | 5.0 | 13.0 | 0.00 | 0.00 | 0.00 | 67 | 1004.9 |
| 20260505174030 | 82 | 198 | 4.0 | 21.0 | 0.00 | 0.00 | 0.00 | 68 | 1004.9 |
| 20260505173531 | 81 | 201 | 8.0 | 21.0 | 0.00 | 0.00 | 0.00 | 68 | 1004.9 |
| 20260505173047 | 81 | 186 | 5.0 | 14.0 | 0.00 | 0.00 | 0.00 | 68 | 1005.0 |
| 20260505172530 | 80 | 196 | 6.0 | 16.0 | 0.00 | 0.00 | 0.00 | 69 | 1005.0 |
| 20260505172031 | 80 | 207 | 6.0 | 16.0 | 0.00 | 0.00 | 0.00 | 69 | 1005.1 |
| 20260505171540 | 80 | 218 | 6.0 | 16.0 | 0.00 | 0.00 | 0.00 | 70 | 1005.1 |
| 20260505171034 | 79 | 187 | 6.0 | 16.0 | 0.00 | 0.00 | 0.00 | 70 | 1005.1 |
| 20260505170531 | 79 | 202 | 7.0 | 19.0 | 0.00 | 0.00 | 0.00 | 70 | 1005.3 |
| 20260505170040 | 79 | 291 | 8.0 | 19.0 | 0.00 | 0.00 | 0.00 | 70 | 1005.2 |
| 20260505165531 | 79 | 182 | 8.0 | 18.0 | 0.00 | 0.00 | 0.00 | 69 | 1005.3 |
| 20260505165031 | 79 | 180 | 4.0 | 18.0 | 0.00 | 0.00 | 0.00 | 70 | 1005.1 |
| 20260505164556 | 79 | 217 | 6.0 | 20.0 | 0.00 | 0.00 | 0.00 | 70 | 1005.1 |
| 20260505164031 | 79 | 211 | 9.0 | 20.0 | 0.00 | 0.00 | 0.00 | 70 | 1005.0 |
| 20260505163528 | 79 | 180 | 7.0 | 18.0 | 0.00 | 0.00 | 0.00 | 69 | 1005.1 |
| 20260505163045 | 79 | 195 | 4.0 | 19.0 | 0.00 | 0.00 | 0.00 | 70 | 1005.1 |
| 20260505162530 | 79 | 5 | 7.0 | 19.0 | 0.00 | 0.00 | 0.00 | 70 | 1004.8 |
| 20260505162031 | 79 | 267 | 5.0 | 19.0 | 0.00 | 0.00 | 0.00 | 71 | 1005.0 |
| 20260505161542 | 79 | 155 | 7.0 | 22.0 | 0.00 | 0.00 | 0.00 | 71 | 1004.7 |
| 20260505161030 | 78 | 192 | 6.0 | 22.0 | 0.00 | 0.00 | 0.00 | 71 | 1005.0 |
| 20260505160528 | 78 | 196 | 6.0 | 20.0 | 0.00 | 0.00 | 0.00 | 71 | 1004.9 |
| 20260505153053 | 77 | 155 | 9.0 | 23.0 | 0.00 | 0.00 | 0.00 | 73 | 1004.8 |
| 20260505152531 | 77 | 204 | 7.0 | 20.0 | 0.00 | 0.00 | 0.00 | 73 | 1004.7 |
| 20260505152030 | 76 | 227 | 7.0 | 20.0 | 0.00 | 0.00 | 0.00 | 74 | 1004.7 |
| 20260505151548 | 76 | 181 | 9.0 | 21.0 | 0.00 | 0.00 | 0.00 | 75 | 1004.9 |
| 20260505151031 | 75 | 202 | 8.0 | 23.0 | 0.00 | 0.00 | 0.00 | 75 | 1005.0 |
| 20260505150531 | 75 | 180 | 8.0 | 23.0 | 0.00 | 0.00 | 0.00 | 75 | 1004.9 |
| 20260505140530 | 73 | 177 | 5.0 | 21.0 | 0.00 | 0.00 | 0.00 | 79 | 1005.0 |
| 20260505125030 | 71 | 193 | 8.0 | 19.0 | 0.00 | 0.00 | 0.00 | 81 | 1004.3 |
| 20260505124540 | 71 | 150 | 4.0 | 18.0 | 0.00 | 0.00 | 0.00 | 81 | 1004.2 |
| 20260505124029 | 71 | 180 | 6.0 | 18.0 | 0.00 | 0.00 | 0.00 | 81 | 1004.3 |
| 20260505123528 | 71 | 186 | 6.0 | 17.0 | 0.00 | 0.00 | 0.00 | 81 | 1004.3 |
| 20260505123038 | 71 | 164 | 5.0 | 17.0 | 0.00 | 0.00 | 0.00 | 81 | 1004.0 |
| 20260505122528 | 71 | 192 | 6.0 | 16.0 | 0.00 | 0.00 | 0.00 | 81 | 1003.8 |
| 20260505122028 | 71 | 196 | 5.0 | 17.0 | 0.00 | 0.00 | 0.00 | 81 | 1003.8 |
| 20260505121538 | 71 | 236 | 7.0 | 19.0 | 0.00 | 0.00 | 0.00 | 81 | 1003.9 |
| 20260505121029 | 71 | 219 | 7.0 | 19.0 | 0.00 | 0.00 | 0.00 | 81 | 1003.9 |
| 20260505120528 | 71 | 190 | 5.0 | 19.0 | 0.00 | 0.00 | 0.00 | 81 | 1003.8 |
| 20260505120042 | 71 | 180 | 7.0 | 19.0 | 0.00 | 0.00 | 0.00 | 81 | 1003.9 |
| 20260505115529 | 71 | 242 | 8.0 | 19.0 | 0.00 | 0.00 | 0.00 | 81 | 1003.8 |
| 20260505115033 | 71 | 169 | 6.0 | 14.0 | 0.00 | 0.00 | 0.00 | 81 | 1003.7 |
| 20260505114544 | 71 | 133 | 5.0 | 18.0 | 0.00 | 0.00 | 0.00 | 81 | 1003.6 |
| 20260505114030 | 71 | 193 | 5.0 | 18.0 | 0.00 | 0.00 | 0.00 | 81 | 1003.6 |
| 20260505113532 | 71 | 195 | 4.0 | 17.0 | 0.00 | 0.00 | 0.00 | 81 | 1003.7 |
| 20260505113037 | 71 | 175 | 5.0 | 20.0 | 0.00 | 0.00 | 0.00 | 81 | 1003.7 |
| 20260505112529 | 71 | 185 | 6.0 | 20.0 | 0.00 | 0.00 | 0.00 | 81 | 1003.5 |
| 20260505112028 | 71 | 177 | 7.0 | 17.0 | 0.00 | 0.00 | 0.00 | 81 | 1003.7 |
| 20260505111551 | 71 | 0 | 5.0 | 14.0 | 0.00 | 0.00 | 0.00 | 81 | 1003.7 |
| 20260505111029 | 71 | 209 | 6.0 | 14.0 | 0.00 | 0.00 | 0.00 | 81 | 1003.7 |
| 20260505110529 | 71 | 211 | 5.0 | 12.0 | 0.00 | 0.00 | 0.00 | 81 | 1003.5 |
| 20260505102030 | 71 | 219 | 4.0 | 16.0 | 0.00 | 0.00 | 0.00 | 81 | 1003.8 |
| 20260505101542 | 71 | 174 | 5.0 | 16.0 | 0.00 | 0.00 | 0.00 | 81 | 1003.7 |
| 20260505101030 | 71 | 209 | 5.0 | 14.0 | 0.00 | 0.00 | 0.00 | 81 | 1003.7 |
| 20260505100533 | 71 | 196 | 5.0 | 15.0 | 0.00 | 0.00 | 0.00 | 81 | 1003.8 |
| 20260505100050 | 71 | 197 | 6.0 | 15.0 | 0.00 | 0.00 | 0.00 | 81 | 1003.8 |
| 20260505095533 | 71 | 175 | 5.0 | 13.0 | 0.00 | 0.00 | 0.00 | 81 | 1003.6 |
| 20260505095030 | 71 | 194 | 5.0 | 15.0 | 0.00 | 0.00 | 0.00 | 81 | 1003.7 |
| 20260505094542 | 71 | 192 | 6.0 | 15.0 | 0.00 | 0.00 | 0.00 | 81 | 1003.9 |
| 20260505094029 | 71 | 242 | 6.0 | 15.0 | 0.00 | 0.00 | 0.00 | 81 | 1003.8 |
| 20260505093530 | 71 | 144 | 7.0 | 15.0 | 0.00 | 0.00 | 0.00 | 81 | 1004.0 |
| 20260505093042 | 71 | 165 | 6.0 | 19.0 | 0.00 | 0.00 | 0.00 | 81 | 1003.9 |
| 20260505092530 | 71 | 149 | 6.0 | 19.0 | 0.00 | 0.00 | 0.00 | 81 | 1003.9 |
| 20260505092031 | 71 | 200 | 7.0 | 19.0 | 0.00 | 0.00 | 0.00 | 81 | 1004.0 |
| 20260505091552 | 71 | 157 | 6.0 | 21.0 | 0.00 | 0.00 | 0.00 | 81 | 1003.9 |
| 20260505091031 | 71 | 148 | 5.0 | 21.0 | 0.00 | 0.00 | 0.00 | 81 | 1004.0 |
| 20260505090530 | 71 | 161 | 6.0 | 19.0 | 0.00 | 0.00 | 0.00 | 81 | 1004.2 |
| 20260505090052 | 71 | 207 | 5.0 | 19.0 | 0.00 | 0.00 | 0.00 | 81 | 1004.1 |
| 20260505085534 | 71 | 200 | 5.0 | 19.0 | 0.00 | 0.00 | 0.00 | 81 | 1004.2 |
| 20260505085030 | 71 | 184 | 6.0 | 19.0 | 0.00 | 0.00 | 0.00 | 81 | 1004.2 |
| 20260505084539 | 70 | 186 | 5.0 | 11.0 | 0.00 | 0.00 | 0.00 | 81 | 1004.2 |
| 20260505084030 | 70 | 167 | 4.0 | 16.0 | 0.00 | 0.00 | 0.00 | 81 | 1004.1 |
| 20260505083529 | 70 | 153 | 6.0 | 16.0 | 0.00 | 0.00 | 0.00 | 81 | 1004.2 |
| 20260505083044 | 70 | 220 | 4.0 | 13.0 | 0.00 | 0.00 | 0.00 | 81 | 1004.0 |
| 20260505082530 | 71 | 177 | 5.0 | 14.0 | 0.00 | 0.00 | 0.00 | 80 | 1004.0 |
| 20260505082032 | 71 | 233 | 5.0 | 14.0 | 0.00 | 0.00 | 0.00 | 80 | 1004.1 |
| 20260505081555 | 71 | 184 | 3.0 | 17.0 | 0.00 | 0.00 | 0.00 | 80 | 1004.3 |
| 20260505081031 | 71 | 196 | 7.0 | 17.0 | 0.00 | 0.00 | 0.00 | 80 | 1004.3 |
| 20260505080532 | 71 | 208 | 5.0 | 21.0 | 0.00 | 0.00 | 0.00 | 80 | 1004.3 |
| 20260505080047 | 71 | 144 | 5.0 | 22.0 | 0.00 | 0.00 | 0.00 | 79 | 1004.3 |
| 20260505075530 | 71 | 155 | 5.0 | 22.0 | 0.00 | 0.00 | 0.00 | 79 | 1004.4 |
| 20260505075029 | 71 | 180 | 4.0 | 14.0 | 0.00 | 0.00 | 0.00 | 79 | 1004.3 |
| 20260505074554 | 71 | 191 | 2.0 | 15.0 | 0.00 | 0.00 | 0.00 | 78 | 1004.5 |
| 20260505074031 | 71 | 198 | 7.0 | 15.0 | 0.00 | 0.00 | 0.00 | 79 | 1004.6 |
| 20260505073531 | 71 | 163 | 5.0 | 16.0 | 0.00 | 0.00 | 0.00 | 78 | 1004.6 |
| 20260505073040 | 72 | 188 | 4.0 | 16.0 | 0.00 | 0.00 | 0.00 | 78 | 1004.7 |
| 20260505072530 | 72 | 202 | 8.0 | 16.0 | 0.00 | 0.00 | 0.00 | 78 | 1004.8 |
| 20260505072028 | 72 | 197 | 6.0 | 16.0 | 0.00 | 0.00 | 0.00 | 78 | 1005.0 |
| 20260505071535 | 72 | 190 | 5.0 | 16.0 | 0.00 | 0.00 | 0.00 | 77 | 1005.1 |
| 20260505071031 | 72 | 200 | 6.0 | 15.0 | 0.00 | 0.00 | 0.00 | 77 | 1005.1 |
| 20260505070531 | 72 | 185 | 5.0 | 17.0 | 0.00 | 0.00 | 0.00 | 77 | 1005.2 |
| 20260505070046 | 72 | 190 | 5.0 | 17.0 | 0.00 | 0.00 | 0.00 | 77 | 1005.2 |
| 20260505065532 | 72 | 170 | 7.0 | 17.0 | 0.00 | 0.00 | 0.00 | 77 | 1005.1 |
| 20260505065030 | 72 | 207 | 6.0 | 13.0 | 0.00 | 0.00 | 0.00 | 77 | 1005.3 |
| 20260505064542 | 72 | 141 | 5.0 | 16.0 | 0.00 | 0.00 | 0.00 | 77 | 1005.4 |
| 20260505064029 | 72 | 189 | 6.0 | 16.0 | 0.00 | 0.00 | 0.00 | 77 | 1005.4 |
| 20260505063529 | 72 | 190 | 6.0 | 11.0 | 0.00 | 0.00 | 0.00 | 77 | 1005.5 |
| 20260505063043 | 72 | 195 | 5.0 | 15.0 | 0.00 | 0.00 | 0.00 | 76 | 1005.4 |
| 20260505062531 | 72 | 207 | 5.0 | 16.0 | 0.00 | 0.00 | 0.00 | 76 | 1005.4 |
| 20260505062030 | 72 | 150 | 4.0 | 16.0 | 0.00 | 0.00 | 0.00 | 76 | 1005.4 |
| 20260505061557 | 72 | 204 | 5.0 | 14.0 | 0.00 | 0.00 | 0.00 | 76 | 1005.2 |
| 20260505061029 | 72 | 217 | 4.0 | 15.0 | 0.00 | 0.00 | 0.00 | 76 | 1005.3 |
| 20260505060528 | 72 | 207 | 6.0 | 15.0 | 0.00 | 0.00 | 0.00 | 76 | 1005.4 |
| 20260505060051 | 72 | 123 | 5.0 | 15.0 | 0.00 | 0.00 | 0.00 | 76 | 1005.3 |
| 20260505055530 | 72 | 230 | 6.0 | 15.0 | 0.00 | 0.00 | 0.00 | 76 | 1005.3 |
| 20260505055033 | 72 | 164 | 5.0 | 15.0 | 0.00 | 0.00 | 0.00 | 75 | 1005.3 |
| 20260505054555 | 72 | 124 | 3.0 | 13.0 | 0.00 | 0.00 | 0.00 | 75 | 1005.5 |
| 20260505054034 | 72 | 211 | 5.0 | 17.0 | 0.00 | 0.00 | 0.00 | 75 | 1005.6 |
| 20260505053531 | 72 | 188 | 7.0 | 17.0 | 0.00 | 0.00 | 0.00 | 75 | 1005.5 |
| 20260505053044 | 72 | 144 | 5.0 | 13.0 | 0.00 | 0.00 | 0.00 | 75 | 1005.7 |
| 20260505052529 | 72 | 165 | 4.0 | 14.0 | 0.00 | 0.00 | 0.00 | 75 | 1005.8 |
| 20260505052030 | 72 | 144 | 6.0 | 14.0 | 0.00 | 0.00 | 0.00 | 75 | 1005.8 |
| 20260505051536 | 72 | 179 | 5.0 | 15.0 | 0.00 | 0.00 | 0.00 | 74 | 1005.7 |
| 20260505051030 | 73 | 209 | 6.0 | 15.0 | 0.00 | 0.00 | 0.00 | 74 | 1005.7 |
| 20260505050530 | 73 | 179 | 3.0 | 12.0 | 0.00 | 0.00 | 0.00 | 74 | 1005.8 |
| 20260505041539 | 73 | 197 | 6.0 | 12.0 | 0.00 | 0.00 | 0.00 | 72 | 1005.9 |
| 20260505041031 | 73 | 200 | 4.0 | 12.0 | 0.00 | 0.00 | 0.00 | 72 | 1006.2 |
| 20260505040530 | 74 | 195 | 4.0 | 12.0 | 0.00 | 0.00 | 0.00 | 72 | 1006.1 |
| 20260505040041 | 74 | 182 | 5.0 | 12.0 | 0.00 | 0.00 | 0.00 | 72 | 1006.2 |
| 20260505035530 | 74 | 191 | 5.0 | 14.0 | 0.00 | 0.00 | 0.00 | 71 | 1006.2 |
| 20260505035029 | 74 | 174 | 4.0 | 14.0 | 0.00 | 0.00 | 0.00 | 71 | 1005.9 |
| 20260505034538 | 74 | 199 | 5.0 | 12.0 | 0.00 | 0.00 | 0.00 | 71 | 1006.0 |
| 20260505034031 | 74 | 191 | 4.0 | 12.0 | 0.00 | 0.00 | 0.00 | 71 | 1005.9 |
| 20260505033533 | 74 | 219 | 5.0 | 12.0 | 0.00 | 0.00 | 0.00 | 71 | 1005.9 |
| 20260505033049 | 74 | 136 | 3.0 | 10.0 | 0.00 | 0.00 | 0.00 | 71 | 1005.8 |
| 20260505032531 | 74 | 168 | 4.0 | 18.0 | 0.00 | 0.00 | 0.00 | 70 | 1006.0 |
| 20260505032031 | 74 | 209 | 5.0 | 18.0 | 0.00 | 0.00 | 0.00 | 70 | 1006.0 |
| 20260505031538 | 74 | 167 | 6.0 | 13.0 | 0.00 | 0.00 | 0.00 | 70 | 1006.0 |
| 20260505031028 | 74 | 199 | 5.0 | 19.0 | 0.00 | 0.00 | 0.00 | 70 | 1006.0 |
| 20260505030528 | 74 | 170 | 4.0 | 19.0 | 0.00 | 0.00 | 0.00 | 70 | 1006.0 |
| 20260505030040 | 74 | 183 | 3.0 | 10.0 | 0.00 | 0.00 | 0.00 | 70 | 1006.0 |
| 20260505025534 | 74 | 188 | 4.0 | 14.0 | 0.00 | 0.00 | 0.00 | 70 | 1006.1 |
| 20260505025027 | 74 | 178 | 4.0 | 14.0 | 0.00 | 0.00 | 0.00 | 70 | 1006.1 |
| 20260505024604 | 74 | 229 | 4.0 | 14.0 | 0.00 | 0.00 | 0.00 | 70 | 1006.1 |
| 20260505024028 | 74 | 169 | 4.0 | 14.0 | 0.00 | 0.00 | 0.00 | 69 | 1006.1 |
| 20260505023531 | 74 | 180 | 3.0 | 15.0 | 0.00 | 0.00 | 0.00 | 69 | 1006.1 |
| 20260505023043 | 74 | 217 | 4.0 | 16.0 | 0.00 | 0.00 | 0.00 | 69 | 1006.1 |
| 20260505022531 | 74 | 186 | 3.0 | 16.0 | 0.00 | 0.00 | 0.00 | 69 | 1005.9 |
| 20260505022031 | 74 | 206 | 3.0 | 13.0 | 0.00 | 0.00 | 0.00 | 69 | 1005.9 |
| 20260505021601 | 75 | 177 | 4.0 | 13.0 | 0.00 | 0.00 | 0.00 | 69 | 1006.0 |
| 20260505021030 | 75 | 165 | 5.0 | 10.0 | 0.00 | 0.00 | 0.00 | 69 | 1005.9 |
| 20260505020530 | 75 | 217 | 3.0 | 10.0 | 0.00 | 0.00 | 0.00 | 68 | 1006.0 |
| 20260505020046 | 75 | 223 | 4.0 | 12.0 | 0.00 | 0.00 | 0.00 | 68 | 1005.9 |
| 20260505015531 | 75 | 172 | 5.0 | 12.0 | 0.00 | 0.00 | 0.00 | 68 | 1006.0 |
| 20260505015030 | 75 | 123 | 4.0 | 13.0 | 0.00 | 0.00 | 0.00 | 67 | 1006.0 |
| 20260505014539 | 75 | 188 | 4.0 | 13.0 | 0.00 | 0.00 | 0.00 | 67 | 1006.0 |
| 20260505014031 | 75 | 144 | 5.0 | 14.0 | 0.00 | 0.00 | 0.00 | 67 | 1006.0 |
| 20260505013533 | 76 | 151 | 5.0 | 16.0 | 0.00 | 0.00 | 0.00 | 67 | 1006.0 |
| 20260505013049 | 76 | 159 | 6.0 | 16.0 | 0.00 | 0.00 | 0.00 | 66 | 1006.0 |
| 20260505012529 | 76 | 186 | 4.0 | 14.0 | 0.00 | 0.00 | 0.00 | 66 | 1006.1 |
| 20260505012031 | 76 | 181 | 6.0 | 14.0 | 0.00 | 0.00 | 0.00 | 65 | 1006.0 |
| 20260505011551 | 76 | 174 | 6.0 | 14.0 | 0.00 | 0.00 | 0.00 | 65 | 1006.0 |
| 20260505011028 | 76 | 195 | 5.0 | 13.0 | 0.00 | 0.00 | 0.00 | 65 | 1005.9 |
| 20260505010532 | 76 | 195 | 5.0 | 13.0 | 0.00 | 0.00 | 0.00 | 65 | 1005.9 |
| 20260505010040 | 76 | 163 | 4.0 | 19.0 | 0.00 | 0.00 | 0.00 | 65 | 1005.8 |
| 20260505005531 | 76 | 184 | 4.0 | 19.0 | 0.00 | 0.00 | 0.00 | 65 | 1005.7 |
| 20260505005031 | 77 | 211 | 7.0 | 19.0 | 0.00 | 0.00 | 0.00 | 64 | 1005.7 |
| 20260505004543 | 77 | 168 | 7.0 | 21.0 | 0.00 | 0.00 | 0.00 | 64 | 1005.8 |
| 20260505004030 | 77 | 213 | 6.0 | 21.0 | 0.00 | 0.00 | 0.00 | 64 | 1005.8 |
| 20260505003533 | 77 | 191 | 6.0 | 24.0 | 0.00 | 0.00 | 0.00 | 63 | 1005.8 |
| 20260505003038 | 77 | 193 | 8.0 | 24.0 | 0.00 | 0.00 | 0.00 | 63 | 1006.1 |